Location: Lourdes
(43.1000°N, 0.0500°W)
Time: 10:08:48
(UTC+00:00)

SL-23 DEB - Pass Details

Date: 30 November 2020
Orbit: 425 x 3627 km, 51.4° (Epoch: 26 January)

Event Time Altitude Azimuth Distance (km) Brightness Sun altitude
Rises 17:17:31 0° 225° (SW) 2,406 8.5 -9.2°
Reaches altitude 10° 17:19:19 10° 222° (SW) 1,621 7.3 -9.5°
Maximum altitude 17:22:41 62° 141° (SE) 649 4.1 -10.1°
Enters shadow 17:26:57 14° 62° (ENE) 2,086 6.1 -10.8°
